• In Hungary
  • List of Countries
  • For 7 days
  • Water Temperature
  • Satellite Maps
  • Weather Map
  • News
  • Weather Widgets
  • user-avatar
    Login

    Hourly Weather Shibaniha

    Today, 21 September, Friday

    Time Temperature Precipitation Wind Pressure Humidity
    00:00 +14°C° 0 mm 2 mps 749 mmHg 93%
    01:00 +14°C° 0 mm 2 mps 749 mmHg 93%
    02:00 +14°C° 0 mm 2 mps 749 mmHg 94%
    03:00 +14°C° 0 mm 2 mps 750 mmHg 94%
    04:00 +13°C° 0 mm 2 mps 750 mmHg 95%
    05:00 +13°C° 0 mm 2 mps 750 mmHg 95%
    06:00 +15°C° 0 mm 2 mps 750 mmHg 89%
    07:00 +16°C° 0 mm 2 mps 750 mmHg 84%
    08:00 +18°C° 0 mm 3 mps 750 mmHg 79%
    09:00 +19°C° 0 mm 3 mps 750 mmHg 74%
    10:00 +21°C° 0 mm 3 mps 750 mmHg 69%
    11:00 +24°C° 0 mm 3 mps 750 mmHg 65%
    12:00 +24°C° 0 mm 3 mps 750 mmHg 63%
    13:00 +25°C° 0 mm 3 mps 750 mmHg 62%
    14:00 +26°C° 0 mm 3 mps 750 mmHg 62%
    15:00 +25°C° 0.3 mm 3 mps 750 mmHg 67%
    16:00 +22°C° 0.3 mm 3 mps 750 mmHg 73%
    17:00 +21°C° 0.3 mm 2 mps 750 mmHg 79%
    18:00 +20°C° 0.1 mm 2 mps 750 mmHg 82%
    19:00 +19°C° 0.1 mm 2 mps 750 mmHg 86%
    20:00 +18°C° 0.1 mm 2 mps 750 mmHg 89%
    21:00 +17°C° 0 mm 2 mps 750 mmHg 90%
    22:00 +17°C° 0 mm 2 mps 750 mmHg 90%
    23:00 +17°C° 0 mm 2 mps 750 mmHg 91%

    Tomorrow, 22 September, Saturday

    Time Temperature Precipitation Wind Pressure Humidity
    00:00 +16°C° 0 mm 2 mps 749 mmHg 92%
    01:00 +16°C° 0 mm 2 mps 749 mmHg 93%
    02:00 +16°C° 0 mm 2 mps 749 mmHg 94%
    03:00 +16°C° 0 mm 2 mps 749 mmHg 95%
    04:00 +16°C° 0 mm 3 mps 749 mmHg 96%
    05:00 +16°C° 0 mm 3 mps 748 mmHg 96%
    06:00 +17°C° 0 mm 3 mps 748 mmHg 91%
    07:00 +18°C° 0 mm 4 mps 748 mmHg 86%
    08:00 +19°C° 0 mm 4 mps 748 mmHg 81%
    09:00 +21°C° 0 mm 5 mps 747 mmHg 73%
    10:00 +22°C° 0 mm 5 mps 747 mmHg 65%
    11:00 +24°C° 0 mm 6 mps 746 mmHg 57%
    12:00 +24°C° 0 mm 6 mps 746 mmHg 55%
    13:00 +26°C° 0 mm 6 mps 746 mmHg 53%
    14:00 +26°C° 0 mm 6 mps 745 mmHg 51%
    15:00 +25°C° 0 mm 5 mps 745 mmHg 56%
    16:00 +23°C° 0 mm 4 mps 744 mmHg 61%
    17:00 +21°C° 0 mm 4 mps 744 mmHg 66%
    18:00 +20°C° 0.3 mm 4 mps 744 mmHg 71%
    19:00 +19°C° 0.3 mm 3 mps 744 mmHg 76%
    20:00 +18°C° 0.3 mm 3 mps 744 mmHg 82%
    21:00 +16°C° 0.3 mm 3 mps 744 mmHg 84%
    22:00 +15°C° 0.3 mm 2 mps 744 mmHg 87%
    23:00 +14°C° 0.3 mm 2 mps 743 mmHg 90%

    Day after tomorrow, 23 September, Sunday

    Time Temperature Precipitation Wind Pressure Humidity
    00:00 +13°C° 0.2 mm 2 mps 743 mmHg 90%
    01:00 +13°C° 0.2 mm 2 mps 743 mmHg 90%
    02:00 +12°C° 0.2 mm 2 mps 743 mmHg 90%
    03:00 +11°C° 0.3 mm 3 mps 743 mmHg 90%
    04:00 +11°C° 0.3 mm 3 mps 743 mmHg 90%
    05:00 +10°C° 0.3 mm 3 mps 743 mmHg 90%
    06:00 +10°C° 1 mm 3 mps 743 mmHg 91%
    07:00 +10°C° 1 mm 3 mps 742 mmHg 92%
    08:00 +9°C° 1 mm 3 mps 742 mmHg 93%
    09:00 +9°C° 1.1 mm 3 mps 742 mmHg 92%
    10:00 +10°C° 1.1 mm 3 mps 742 mmHg 92%
    11:00 +10°C° 1.1 mm 3 mps 742 mmHg 91%
    12:00 +11°C° 0.2 mm 3 mps 743 mmHg 86%
    13:00 +12°C° 0.2 mm 3 mps 743 mmHg 82%
    14:00 +13°C° 0.2 mm 3 mps 743 mmHg 77%
    15:00 +12°C° 0.1 mm 3 mps 743 mmHg 79%
    16:00 +12°C° 0.1 mm 3 mps 743 mmHg 81%
    17:00 +12°C° 0.1 mm 2 mps 742 mmHg 83%
    18:00 +10°C° 0.1 mm 2 mps 743 mmHg 85%
    19:00 +10°C° 0.1 mm 2 mps 743 mmHg 87%
    20:00 +9°C° 0.1 mm 2 mps 743 mmHg 89%
    21:00 +8°C° 0 mm 2 mps 743 mmHg 90%
    22:00 +8°C° 0 mm 2 mps 743 mmHg 91%
    23:00 +8°C° 0 mm 3 mps 743 mmHg 91%

    24 September, Monday

    Time Temperature Precipitation Wind Pressure Humidity
    00:00 +7°C° 0 mm 2 mps 743 mmHg 92%
    01:00 +7°C° 0 mm 2 mps 743 mmHg 93%
    02:00 +7°C° 0 mm 2 mps 743 mmHg 94%
    03:00 +7°C° 0 mm 2 mps 743 mmHg 95%
    04:00 +6°C° 0 mm 2 mps 743 mmHg 95%
    05:00 +6°C° 0 mm 2 mps 743 mmHg 96%
    06:00 +7°C° 0 mm 3 mps 743 mmHg 93%
    07:00 +8°C° 0 mm 3 mps 743 mmHg 89%
    08:00 +9°C° 0 mm 3 mps 743 mmHg 86%
    09:00 +10°C° 0 mm 3 mps 743 mmHg 81%
    10:00 +11°C° 0 mm 3 mps 743 mmHg 75%
    11:00 +12°C° 0 mm 3 mps 743 mmHg 69%
    12:00 +13°C° 0 mm 3 mps 742 mmHg 66%
    13:00 +13°C° 0 mm 3 mps 742 mmHg 63%
    14:00 +15°C° 0 mm 2 mps 741 mmHg 61%
    15:00 +14°C° 0.2 mm 2 mps 741 mmHg 66%
    16:00 +13°C° 0.2 mm 2 mps 740 mmHg 72%
    17:00 +12°C° 0.2 mm 2 mps 740 mmHg 78%
    18:00 +10°C° 0.6 mm 3 mps 739 mmHg 82%
    19:00 +10°C° 0.6 mm 3 mps 738 mmHg 85%
    20:00 +8°C° 0.6 mm 4 mps 737 mmHg 88%
    21:00 +8°C° 1.4 mm 5 mps 736 mmHg 89%
    22:00 +7°C° 1.4 mm 5 mps 735 mmHg 89%
    23:00 +7°C° 1.4 mm 6 mps 733 mmHg 90%

    25 September, Tuesday

    Time Temperature Precipitation Wind Pressure Humidity
    00:00 +7°C° 2.9 mm 6 mps 732 mmHg 91%
    01:00 +7°C° 2.9 mm 6 mps 731 mmHg 91%
    02:00 +7°C° 2.9 mm 6 mps 730 mmHg 92%
    03:00 +7°C° 1.7 mm 6 mps 729 mmHg 92%
    04:00 +7°C° 1.7 mm 5 mps 729 mmHg 93%
    05:00 +7°C° 1.7 mm 5 mps 728 mmHg 93%
    06:00 +7°C° 0.9 mm 5 mps 728 mmHg 93%
    07:00 +7°C° 0.9 mm 5 mps 728 mmHg 92%
    08:00 +7°C° 0.9 mm 5 mps 728 mmHg 92%
    09:00 +7°C° 1 mm 5 mps 729 mmHg 91%
    10:00 +7°C° 1 mm 6 mps 729 mmHg 91%
    11:00 +7°C° 1 mm 6 mps 730 mmHg 90%
    12:00 +5°C° 0.9 mm 7 mps 730 mmHg 89%
    13:00 +5°C° 0.9 mm 7 mps 731 mmHg 88%
    14:00 +5°C° 0.9 mm 8 mps 732 mmHg 87%
    15:00 +5°C° 0.4 mm 8 mps 733 mmHg 85%
    16:00 +5°C° 0.4 mm 8 mps 734 mmHg 84%
    17:00 +5°C° 0.4 mm 8 mps 734 mmHg 82%
    18:00 +4°C° 0.2 mm 8 mps 735 mmHg 82%
    19:00 +4°C° 0.2 mm 8 mps 736 mmHg 81%
    20:00 +4°C° 0.2 mm 7 mps 736 mmHg 81%
    21:00 +4°C° 0 mm 7 mps 737 mmHg 81%
    22:00 +3°C° 0 mm 7 mps 738 mmHg 80%
    23:00 +3°C° 0 mm 6 mps 738 mmHg 80%

    26 September, Wednesday

    Time Temperature Precipitation Wind Pressure Humidity
    00:00 +3°C° 0 mm 6 mps 739 mmHg 80%
    01:00 +2°C° 0 mm 6 mps 739 mmHg 79%
    02:00 +2°C° 0 mm 6 mps 740 mmHg 79%
    03:00 +2°C° 0 mm 6 mps 740 mmHg 80%
    04:00 +1°C° 0 mm 6 mps 741 mmHg 81%
    05:00 +1°C° 0 mm 6 mps 741 mmHg 82%
    06:00 +2°C° 0.1 mm 6 mps 742 mmHg 81%
    07:00 +2°C° 0.1 mm 6 mps 742 mmHg 80%
    08:00 +3°C° 0.1 mm 6 mps 743 mmHg 78%
    09:00 +3°C° 0.1 mm 6 mps 744 mmHg 75%
    10:00 +4°C° 0.1 mm 6 mps 744 mmHg 71%
    11:00 +5°C° 0.1 mm 6 mps 745 mmHg 67%
    12:00 +7°C° 0 mm 6 mps 746 mmHg 64%
    13:00 +7°C° 0 mm 5 mps 746 mmHg 60%
    14:00 +8°C° 0 mm 5 mps 747 mmHg 57%
    15:00 +7°C° 0 mm 5 mps 748 mmHg 60%
    16:00 +6°C° 0 mm 4 mps 748 mmHg 64%
    17:00 +5°C° 0 mm 3 mps 749 mmHg 67%
    18:00 +4°C° 0 mm 3 mps 749 mmHg 71%
    19:00 +3°C° 0 mm 3 mps 750 mmHg 74%
    20:00 +3°C° 0 mm 3 mps 750 mmHg 77%
    21:00 +2°C° 0 mm 3 mps 751 mmHg 79%
    22:00 +2°C° 0 mm 2 mps 751 mmHg 80%
    23:00 +2°C° 0 mm 2 mps 751 mmHg 82%
    Show more